Cheyenne, WY

4:55 PM MST on February 17, 2018 (GMT -0700)
Cheyenne

Weather History for KCYS - March, 2014

Change the Weather History Date:

Tuesday, March 11, 2014

  Actual Average Record
Temperature  
Mean Temperature 31 °F 35 °F  
Max Temperature 43 °F 47 °F 72 °F (1989)
Min Temperature 18 °F 24 °F -19 °F (1948)
Degree Days  
Heating Degree Days 34 30  
Month to date heating degree days 317 344  
Since 1 July heating degree days 5521 5363  
Cooling Degree Days 0 0  
Month to date cooling degree days 0 0  
Year to date cooling degree days 0 0  
Moisture  
Dew Point 22 °F    
Average Humidity 66    
Maximum Humidity 92    
Minimum Humidity 40    
Precipitation  
Precipitation 0.06 in 0.03 in 0.46 in (1977)
Month to date precipitation 0.32 0.31  
Year to date precipitation 2.48 1.11  
Snow  
Snow 0.60 in 0.40 in 8.20 in (1909)
Month to date snowfall 3.4 3.7  
Since 1 July snowfall 63.5 40.2  
Snow Depth 0.00 in    
Sea Level Pressure  
Sea Level Pressure 30.02 in    
Wind  
Wind Speed 18 mph (North)    
Max Wind Speed 35 mph    
Max Gust Speed 45 mph    
Visibility 5 miles    
Events Fog , Snow    
T = Trace of Precipitation, MM = Missing Value Source: NWS Daily Summary

Daily Weather History Graph

Daily Weather History Graph

Search for Another Location

Airport or City:

Trip Planner

Search our weather history database for the weather conditions in past years. The results will help you decide how hot, cold, wet, or windy it might be!

Date:

Astronomy

Mar. 11, 2014 Rise Set
Actual Time 7:17 AM MDT 7:01 PM MDT
Civil Twilight 6:50 AM MDT 7:29 PM MDT
Nautical Twilight 6:18 AM MDT 8:01 PM MDT
Astronomical Twilight 5:45 AM MDT 8:33 PM MDT
Moon 2:38 PM MDT (3/11) 4:14 AM MDT (3/11)
Length of Visible Light 12h 39m
Length of Day
11h 44m
Waxing Gibbous, 78% of the Moon is Illuminated
Mar 11
Waxing Gibbous
Mar 16
Full
Mar 23
Last Quarter
Mar 30
New
Apr 7
First Quarter

Hourly Weather History & Observations

Time (MDT) Temp. Windchill Dew Point Humidity Pressure Visibility Wind Dir Wind Speed Gust Speed Precip Events Conditions
12:53 AM 44.1 °F 37.7 °F 21.9 °F 42% 29.58 in 10.0 mi NW 12.7 mph - N/A   Clear
1:53 AM 39.9 °F 34.5 °F 23.0 °F 51% 29.59 in 10.0 mi WNW 8.1 mph - N/A   Clear
2:53 AM 37.9 °F 28.9 °F 27.0 °F 65% 29.59 in 10.0 mi NNW 16.1 mph 23.0 mph N/A   Clear
3:53 AM 37.9 °F 32.1 °F 26.1 °F 62% 29.57 in 10.0 mi North 8.1 mph 16.1 mph N/A   Clear
4:53 AM 36.0 °F 33.3 °F 24.1 °F 62% 29.56 in 10.0 mi Variable 3.5 mph - N/A   Clear
5:53 AM 39.0 °F 31.8 °F 21.0 °F 49% 29.58 in 10.0 mi WNW 11.5 mph 29.9 mph N/A   Clear
6:53 AM 36.0 °F 25.3 °F 25.0 °F 64% 29.67 in 10.0 mi NNW 19.6 mph 31.1 mph N/A   Partly Cloudy
7:37 AM 33.1 °F 21.5 °F 28.9 °F 85% 29.79 in 10.0 mi North 19.6 mph 31.1 mph N/A   Overcast
7:49 AM 32.0 °F 18.9 °F 30.2 °F 93% 29.80 in 1.0 mi North 24.2 mph 33.4 mph 0.00 in   Overcast
7:53 AM 32.0 °F 17.6 °F 30.0 °F 92% 29.74 in 1.0 mi North 29.9 mph 39.1 mph 0.00 in   Overcast
8:06 AM 30.9 °F 18.1 °F 27.0 °F 85% 29.80 in 2.5 mi North 21.9 mph 36.8 mph 0.00 in   Overcast
8:53 AM 28.9 °F 14.0 °F 25.0 °F 85% 29.81 in 2.5 mi North 27.6 mph 38.0 mph 0.00 in Snow Light Snow
9:11 AM 28.9 °F 16.1 °F 25.0 °F 85% 29.85 in 8.0 mi North 19.6 mph 35.7 mph 0.00 in   Overcast
9:53 AM 28.9 °F 15.1 °F 24.1 °F 82% 29.87 in 9.0 mi North 23.0 mph 34.5 mph 0.00 in   Overcast
10:00 AM 30.0 °F 16.3 °F 25.0 °F 82% 29.89 in 10.0 mi North 24.2 mph 35.7 mph 0.00 in   Overcast
10:31 AM 28.9 °F 13.5 °F 24.1 °F 82% 29.92 in 2.5 mi NNE 29.9 mph 38.0 mph 0.00 in   Overcast
10:53 AM 27.0 °F 11.0 °F 21.9 °F 81% 29.99 in 9.0 mi NNE 28.8 mph 44.9 mph 0.00 in   Overcast
11:06 AM 27.0 °F 11.6 °F 21.9 °F 81% 29.97 in 3.0 mi NNE 26.5 mph 42.6 mph 0.00 in Snow Light Snow
11:09 AM 27.0 °F 11.3 °F 23.0 °F 85% 29.98 in 1.8 mi NNE 27.6 mph 41.4 mph 0.00 in Snow Light Snow
11:23 AM 27.0 °F 11.9 °F 23.0 °F 85% 29.99 in 1.2 mi NNE 25.3 mph 38.0 mph 0.00 in Snow Light Snow
11:51 AM 26.6 °F 12.7 °F 23.0 °F 86% 30.02 in 1.8 mi NNE 20.7 mph 36.8 mph 0.00 in Snow Light Snow
11:53 AM 27.0 °F 12.2 °F 23.0 °F 85% 30.04 in 1.8 mi NNE 24.2 mph 33.4 mph 0.00 in Snow Light Snow
12:12 PM 28.0 °F 15.7 °F 23.0 °F 81% 30.04 in 1.8 mi NNE 17.3 mph 28.8 mph 0.00 in Snow Light Snow
12:25 PM 27.0 °F 13.2 °F 23.0 °F 85% 30.04 in 1.5 mi North 20.7 mph 35.7 mph 0.00 in Snow Light Snow
12:45 PM 28.0 °F 14.6 °F 24.1 °F 85% 30.05 in 1.8 mi NNE 20.7 mph 29.9 mph 0.00 in Snow Light Snow
12:53 PM 28.0 °F 16.5 °F 23.0 °F 81% 30.08 in 1.5 mi NNE 15.0 mph 29.9 mph 0.00 in Snow Light Snow
12:58 PM 28.0 °F 14.3 °F 24.1 °F 85% 30.06 in 0.5 mi North 21.9 mph 28.8 mph 0.00 in Snow Light Snow
1:09 PM 27.0 °F 13.2 °F 24.1 °F 89% 30.07 in 0.2 mi North 20.7 mph 27.6 mph 0.00 in Fog , Snow Heavy Snow
1:35 PM 28.0 °F 12.3 °F 24.1 °F 85% 30.08 in 0.8 mi North 29.9 mph 36.8 mph 0.01 in Snow Light Snow
1:45 PM 27.0 °F 11.6 °F 23.0 °F 85% 30.09 in 0.8 mi North 26.5 mph 40.3 mph 0.01 in Snow Light Snow
1:53 PM 27.0 °F 10.5 °F 23.0 °F 85% 30.13 in 0.8 mi North 31.1 mph 44.9 mph 0.01 in Snow Light Snow
2:07 PM 27.0 °F 11.6 °F 23.0 °F 85% 30.10 in 1.0 mi North 26.5 mph 41.4 mph 0.00 in Snow Light Snow
2:21 PM 28.0 °F 12.3 °F 24.1 °F 85% 30.11 in 0.8 mi North 29.9 mph 39.1 mph 0.00 in Snow Light Snow
2:53 PM 27.0 °F 11.3 °F 23.0 °F 85% 30.19 in 0.5 mi North 27.6 mph 40.3 mph 0.00 in Fog , Snow Snow
3:11 PM 27.0 °F 12.2 °F 23.0 °F 85% 30.14 in 1.5 mi North 24.2 mph 38.0 mph 0.00 in Snow Light Snow
3:30 PM 27.0 °F 12.5 °F 23.0 °F 85% 30.16 in 0.5 mi North 23.0 mph 35.7 mph 0.01 in Fog , Snow Snow
3:48 PM 26.6 °F 10.3 °F 23.0 °F 86% 30.16 in 0.5 mi North 29.9 mph 40.3 mph 0.01 in Snow Light Snow
3:53 PM 27.0 °F 12.2 °F 23.0 °F 85% 30.22 in 0.8 mi North 24.2 mph 40.3 mph 0.01 in Snow Light Snow
4:00 PM 28.0 °F 12.8 °F 21.9 °F 78% 30.17 in 3.0 mi North 27.6 mph 39.1 mph 0.00 in Snow Light Snow
4:22 PM 28.0 °F 13.9 °F 19.0 °F 69% 30.18 in 10.0 mi North 23.0 mph 38.0 mph 0.00 in   Scattered Clouds
4:53 PM 28.9 °F 15.8 °F 19.0 °F 67% 30.24 in 10.0 mi North 20.7 mph 34.5 mph 0.00 in   Clear
5:53 PM 28.0 °F 14.6 °F 17.1 °F 63% 30.25 in 10.0 mi North 20.7 mph 31.1 mph N/A   Clear
6:53 PM 26.1 °F 12.3 °F 15.1 °F 63% 30.32 in 10.0 mi NNW 19.6 mph 27.6 mph N/A   Clear
7:53 PM 23.0 °F 11.7 °F 14.0 °F 68% 30.38 in 10.0 mi NNW 11.5 mph - N/A   Clear
8:53 PM 23.0 °F 11.7 °F 12.9 °F 65% 30.41 in 10.0 mi NNW 11.5 mph - N/A   Clear
9:53 PM 21.0 °F 10.6 °F 12.0 °F 68% 30.43 in 10.0 mi NW 9.2 mph - N/A   Clear
10:53 PM 19.9 °F 10.1 °F 10.0 °F 65% 30.44 in 10.0 mi NW 8.1 mph - N/A   Clear
11:53 PM 19.9 °F - 8.1 °F 60% 30.44 in 10.0 mi North - - N/A   Clear